Richlands, VA

12:45 AM EDT on July 28, 2017 (GMT -0400)
Tazewell County

Weather History for KJFZ - February, 2013

Change the Weather History Date:

Wednesday, February 13, 2013

  Actual Average (KBLF) Record (KBLF)
Temperature  
Mean Temperature 36 °F -  
Max Temperature 42 °F 40 °F 63 °F (1990)
Min Temperature 30 °F 25 °F 4 °F (1988)
Degree Days  
Heating Degree Days 29    
Moisture  
Dew Point 33 °F    
Average Humidity 88    
Maximum Humidity 100    
Minimum Humidity 49    
Precipitation  
Precipitation 0.00 in - - ()
Sea Level Pressure  
Sea Level Pressure 29.71 in    
Wind  
Wind Speed 5 mph (NW)    
Max Wind Speed 16 mph    
Max Gust Speed -    
Visibility 8 miles    
Events      
Averages and records for this station are not official NWS values.
T = Trace of Precipitation, MM = Missing Value Source: NWS Daily Summary

Daily Weather History Graph

Daily Weather History Graph

Search for Another Location

Airport or City:

Trip Planner

Search our weather history database for the weather conditions in past years. The results will help you decide how hot, cold, wet, or windy it might be!

Date:

Astronomy

Feb. 13, 2013 Rise Set
Actual Time 7:17 AM EST 6:05 PM EST
Civil Twilight 6:51 AM EST 6:32 PM EST
Nautical Twilight 6:20 AM EST 7:02 PM EST
Astronomical Twilight 5:50 AM EST 7:32 PM EST
Moon 8:53 AM EST (2/13) 9:59 PM EST (2/13)
Length of Visible Light 11h 40m
Length of Day
10h 47m
Waxing Crescent, 13% of the Moon is Illuminated
Feb 13
Waxing Crescent
Feb 17
First Quarter
Feb 25
Full
Mar 4
Last Quarter
Mar 11
New

Hourly Weather History & Observations

Time (EST) Temp. Windchill Dew Point Humidity Pressure Visibility Wind Dir Wind Speed Gust Speed Precip Events Conditions
12:15 AM 39.2 °F 37.0 °F 21.2 °F 49% 29.86 in 10.0 mi NNE 3.5 mph - N/A   Scattered Clouds
12:35 AM 39.2 °F - 21.2 °F 49% 29.85 in 10.0 mi Calm Calm - N/A   Mostly Cloudy
12:55 AM 39.2 °F - 21.2 °F 49% 29.84 in 10.0 mi Calm Calm - N/A   Overcast
1:15 AM 39.2 °F - 21.2 °F 49% 29.82 in 10.0 mi Calm Calm - N/A   Overcast
1:35 AM 39.2 °F - 21.2 °F 49% 29.82 in 10.0 mi Calm Calm - N/A   Overcast
1:55 AM 39.2 °F - 23.0 °F 52% 29.82 in 10.0 mi Calm Calm - N/A   Overcast
2:15 AM 39.2 °F - 23.0 °F 52% 29.81 in 10.0 mi Calm Calm - N/A   Mostly Cloudy
2:35 AM 41.0 °F - 24.8 °F 53% 29.81 in 10.0 mi Calm Calm - N/A   Overcast
2:55 AM 39.2 °F 37.0 °F 26.6 °F 61% 29.79 in 10.0 mi NNE 3.5 mph - N/A   Mostly Cloudy
3:15 AM 39.2 °F - 28.4 °F 65% 29.78 in 10.0 mi Calm Calm - N/A   Mostly Cloudy
3:35 AM 39.2 °F 37.0 °F 28.4 °F 65% 29.78 in 10.0 mi ENE 3.5 mph - N/A   Overcast
3:55 AM 39.2 °F 35.9 °F 28.4 °F 65% 29.77 in 10.0 mi East 4.6 mph - N/A   Mostly Cloudy
4:15 AM 39.2 °F - 28.4 °F 65% 29.76 in 10.0 mi Calm Calm - N/A   Mostly Cloudy
4:35 AM 39.2 °F 37.0 °F 26.6 °F 61% 29.74 in 10.0 mi ENE 3.5 mph - N/A   Mostly Cloudy
4:55 AM 39.2 °F 34.2 °F 26.6 °F 61% 29.74 in 10.0 mi East 6.9 mph - N/A   Mostly Cloudy
5:15 AM 39.2 °F 35.9 °F 26.6 °F 61% 29.73 in 10.0 mi ENE 4.6 mph - N/A   Overcast
5:35 AM 39.2 °F 35.0 °F 28.4 °F 65% 29.72 in 10.0 mi East 5.8 mph - N/A   Overcast
5:55 AM 41.0 °F 38.0 °F 28.4 °F 61% 29.71 in 10.0 mi East 4.6 mph - N/A   Overcast
6:15 AM 39.2 °F 35.9 °F 26.6 °F 61% 29.70 in 10.0 mi NE 4.6 mph - N/A   Overcast
6:35 AM 39.2 °F 35.0 °F 30.2 °F 70% 29.69 in 10.0 mi ENE 5.8 mph - N/A   Mostly Cloudy
6:55 AM 37.4 °F - 37.4 °F 100% 29.69 in 7.0 mi Calm Calm - N/A   Mostly Cloudy
7:15 AM 37.4 °F 34.9 °F 37.4 °F 100% 29.67 in 6.0 mi East 3.5 mph - N/A   Scattered Clouds
7:35 AM 37.4 °F 33.8 °F 37.4 °F 100% 29.65 in 9.0 mi East 4.6 mph - N/A   Unknown
7:55 AM 37.4 °F 33.8 °F 37.4 °F 100% 29.65 in 10.0 mi East 4.6 mph - N/A   Scattered Clouds
8:15 AM 37.4 °F 31.4 °F 37.4 °F 100% 29.65 in 7.0 mi ESE 8.1 mph - N/A   Overcast
8:35 AM 37.4 °F 32.8 °F 37.4 °F 100% 29.64 in 8.0 mi Variable 5.8 mph - N/A   Partly Cloudy
8:55 AM 37.4 °F 32.8 °F 37.4 °F 100% 29.64 in 7.0 mi Variable 5.8 mph - N/A   Partly Cloudy
9:15 AM 37.4 °F 33.8 °F 37.4 °F 100% 29.64 in 10.0 mi ESE 4.6 mph - N/A   Partly Cloudy
9:35 AM 39.2 °F 35.0 °F 39.2 °F 100% 29.63 in 9.0 mi ESE 5.8 mph - N/A   Partly Cloudy
9:55 AM 39.2 °F 35.0 °F 39.2 °F 100% 29.61 in 9.0 mi ESE 5.8 mph - N/A   Partly Cloudy
10:15 AM 39.2 °F 35.9 °F 39.2 °F 100% 29.61 in 10.0 mi ESE 4.6 mph - N/A   Partly Cloudy
10:35 AM 39.2 °F 35.9 °F 39.2 °F 100% 29.61 in 9.0 mi ESE 4.6 mph - N/A   Partly Cloudy
10:55 AM 41.0 °F 38.0 °F 41.0 °F 100% 29.60 in 9.0 mi Variable 4.6 mph - N/A   Scattered Clouds
11:15 AM 42.8 °F 41.1 °F 42.8 °F 100% 29.60 in 7.0 mi West 3.5 mph - N/A   Mostly Cloudy
11:35 AM 42.8 °F 39.3 °F 42.8 °F 100% 29.60 in 9.0 mi NW 5.8 mph - N/A   Scattered Clouds
11:55 AM 41.0 °F 39.0 °F 41.0 °F 100% 29.61 in 0.5 mi NW 3.5 mph - N/A   Mostly Cloudy
12:15 PM 41.0 °F 36.4 °F 41.0 °F 100% 29.61 in 3.0 mi WNW 6.9 mph - N/A   Mostly Cloudy
12:35 PM 41.0 °F 34.3 °F 41.0 °F 100% 29.60 in 0.8 mi WNW 11.5 mph - N/A   Overcast
12:55 PM 39.2 °F 33.6 °F 39.2 °F 100% 29.58 in 0.2 mi NW 8.1 mph - N/A   Overcast
1:15 PM 39.2 °F 34.2 °F 39.2 °F 100% 29.59 in 0.2 mi WNW 6.9 mph - N/A   Overcast
1:35 PM 39.2 °F 35.0 °F 39.2 °F 100% 29.58 in 0.2 mi West 5.8 mph - N/A   Overcast
1:55 PM 39.2 °F 35.0 °F 39.2 °F 100% 29.58 in 0.5 mi West 5.8 mph - N/A   Overcast
2:15 PM 39.2 °F 37.0 °F 39.2 °F 100% 29.58 in 10.0 mi West 3.5 mph - N/A   Partly Cloudy
2:35 PM 39.2 °F 33.0 °F 39.2 °F 100% 29.57 in 10.0 mi WSW 9.2 mph - N/A   Unknown
2:55 PM 39.2 °F 31.6 °F 39.2 °F 100% 29.58 in 2.0 mi WSW 12.7 mph - N/A   Mostly Cloudy
3:15 PM 37.4 °F 29.3 °F 37.4 °F 100% 29.60 in 3.0 mi WNW 12.7 mph - N/A   Mostly Cloudy
3:35 PM 35.6 °F 27.1 °F 35.6 °F 100% 29.62 in 10.0 mi WNW 12.7 mph - N/A   Scattered Clouds
3:55 PM 33.8 °F 23.9 °F 33.8 °F 100% 29.64 in 5.0 mi WNW 15.0 mph - N/A   Unknown
4:15 PM 33.8 °F 24.3 °F 33.8 °F 100% 29.65 in 8.0 mi WNW 13.8 mph - N/A   Clear
4:35 PM 33.8 °F 25.8 °F 33.8 °F 100% 29.68 in 5.0 mi WNW 10.4 mph - N/A   Unknown
4:55 PM 33.8 °F 27.7 °F 33.8 °F 100% 29.69 in 10.0 mi WNW 6.9 mph - N/A   Unknown
5:15 PM 33.8 °F 25.3 °F 33.8 °F 100% 29.70 in 10.0 mi WNW 11.5 mph - N/A   Unknown
5:35 PM 32.0 °F 21.2 °F 32.0 °F 100% 29.71 in 8.0 mi WNW 16.1 mph - N/A   Unknown
5:55 PM 32.0 °F 23.0 °F 32.0 °F 100% 29.72 in 10.0 mi WNW 11.5 mph - N/A   Unknown
6:15 PM 32.0 °F 24.2 °F 32.0 °F 100% 29.73 in 10.0 mi NW 9.2 mph - N/A   Unknown
6:35 PM 32.0 °F 25.6 °F 32.0 °F 100% 29.74 in 10.0 mi WNW 6.9 mph - N/A   Unknown
6:55 PM 32.0 °F 24.2 °F 32.0 °F 100% 29.76 in 10.0 mi WNW 9.2 mph - N/A   Unknown
7:15 PM 32.0 °F 25.6 °F 32.0 °F 100% 29.77 in 10.0 mi WNW 6.9 mph - N/A   Unknown
7:35 PM 32.0 °F 23.6 °F 32.0 °F 100% 29.78 in 10.0 mi WNW 10.4 mph - N/A   Unknown
7:55 PM 32.0 °F 24.2 °F 30.2 °F 93% 29.80 in 10.0 mi West 9.2 mph - N/A   Unknown
8:15 PM 30.2 °F 24.3 °F 30.2 °F 100% 29.80 in 9.0 mi WNW 5.8 mph - N/A   Unknown
8:35 PM 30.2 °F 24.3 °F 30.2 °F 100% 29.80 in 10.0 mi West 5.8 mph - N/A   Unknown
8:55 PM 30.2 °F 22.6 °F 30.2 °F 100% 29.80 in 9.0 mi West 8.1 mph - N/A   Clear
9:15 PM 30.2 °F 22.6 °F 30.2 °F 100% 29.81 in 6.0 mi West 8.1 mph - N/A   Unknown
9:35 PM 30.2 °F 20.2 °F 30.2 °F 100% 29.82 in 10.0 mi WNW 12.7 mph - N/A   Unknown
9:55 PM 30.2 °F 22.6 °F 30.2 °F 100% 29.83 in 10.0 mi West 8.1 mph - N/A   Clear
10:15 PM 30.2 °F 23.4 °F 30.2 °F 100% 29.83 in 10.0 mi West 6.9 mph - N/A   Clear
10:35 PM 30.2 °F 24.3 °F 30.2 °F 100% 29.84 in 10.0 mi Variable 5.8 mph - N/A   Clear
10:55 PM 30.2 °F 22.6 °F 30.2 °F 100% 29.84 in 10.0 mi West 8.1 mph - N/A   Clear
11:55 PM 30.2 °F 23.4 °F 30.2 °F 100% 29.86 in 7.0 mi West 6.9 mph - N/A   Clear